Location: Newark
(54.2500°N, 9.1833°E)
Time: 14:42:36
(UTC+00:00)

Transit 4A - Pass Details

Date: 24 December 2019
Orbit: 871 x 973 km, 66.8° (Epoch: 17 January)

Event Time Altitude Azimuth Distance (km) Brightness Sun altitude
Rises 18:53:46 0° 308° (NW) 3,524 11.7 -32.0°
Reaches altitude 10° 18:56:39 10° 319° (NW) 2,567 10.7 -32.4°
Enters shadow 18:59:52 25° 348° (NNW) 1,735 9.4 -32.9°
